When you browse on this site, cookies collect data to enhance your experience and personalize the content and advertising you see.
Visit our Privacy Policy to learn more. By continuing to use the site, you agree to this use of cookies and data.
EN

Hourly Weather Dofteana

Today, 8 August, Saturday

Time Temperature Precipitation Wind Pressure Humidity
00:00 +24°C° 0 mm 3 mps 731 mmHg 65%
01:00 +23°C° 0 mm 2 mps 731 mmHg 67%
02:00 +23°C° 0 mm 2 mps 730 mmHg 69%
03:00 +21°C° 0 mm 2 mps 730 mmHg 72%
04:00 +20°C° 0 mm 2 mps 730 mmHg 76%
05:00 +19°C° 0 mm 2 mps 730 mmHg 79%
06:00 +21°C° 0 mm 3 mps 731 mmHg 76%
07:00 +24°C° 0 mm 3 mps 731 mmHg 72%
08:00 +25°C° 0 mm 3 mps 731 mmHg 69%
09:00 +27°C° 0 mm 4 mps 731 mmHg 63%
10:00 +28°C° 0 mm 4 mps 731 mmHg 58%
11:00 +29°C° 0 mm 5 mps 731 mmHg 52%
12:00 +30°C° 0.1 mm 4 mps 731 mmHg 51%
13:00 +30°C° 0.1 mm 4 mps 730 mmHg 49%
14:00 +30°C° 0 mm 4 mps 730 mmHg 50%
15:00 +29°C° 0.4 mm 4 mps 730 mmHg 55%
16:00 +29°C° 0.4 mm 4 mps 730 mmHg 59%
17:00 +28°C° 0.4 mm 4 mps 729 mmHg 64%
18:00 +26°C° 0.3 mm 3 mps 729 mmHg 70%
19:00 +24°C° 0.3 mm 3 mps 729 mmHg 75%
20:00 +22°C° 0.3 mm 3 mps 729 mmHg 80%
21:00 +21°C° 0 mm 3 mps 729 mmHg 82%
22:00 +20°C° 0 mm 2 mps 730 mmHg 84%
23:00 +20°C° 0 mm 2 mps 730 mmHg 85%

Tomorrow, 9 August, Sunday

Time Temperature Precipitation Wind Pressure Humidity
00:00 +19°C° 0 mm 2 mps 730 mmHg 87%
01:00 +19°C° 0 mm 2 mps 730 mmHg 89%
02:00 +18°C° 0 mm 2 mps 730 mmHg 90%
03:00 +18°C° 0 mm 2 mps 730 mmHg 91%
04:00 +18°C° 0 mm 2 mps 729 mmHg 91%
05:00 +17°C° 0 mm 2 mps 729 mmHg 92%
06:00 +19°C° 0 mm 2 mps 729 mmHg 86%
07:00 +20°C° 0 mm 3 mps 730 mmHg 81%
08:00 +22°C° 0 mm 3 mps 730 mmHg 75%
09:00 +24°C° 0 mm 3 mps 730 mmHg 70%
10:00 +25°C° 0 mm 4 mps 730 mmHg 65%
11:00 +26°C° 0 mm 4 mps 730 mmHg 60%
12:00 +26°C° 0 mm 4 mps 730 mmHg 59%
13:00 +27°C° 0 mm 4 mps 729 mmHg 58%
14:00 +27°C° 0 mm 4 mps 729 mmHg 57%
15:00 +27°C° 0 mm 4 mps 729 mmHg 57%
16:00 +27°C° 0 mm 3 mps 728 mmHg 58%
17:00 +27°C° 0 mm 3 mps 728 mmHg 58%
18:00 +25°C° 0 mm 3 mps 728 mmHg 66%
19:00 +23°C° 0 mm 2 mps 728 mmHg 73%
20:00 +21°C° 0 mm 1 mps 728 mmHg 81%
21:00 +21°C° 0 mm 1 mps 728 mmHg 83%
22:00 +20°C° 0 mm 1 mps 728 mmHg 84%
23:00 +20°C° 0 mm 1 mps 729 mmHg 86%

Day after tomorrow, 10 August, Monday

Time Temperature Precipitation Wind Pressure Humidity
00:00 +19°C° 0 mm 1 mps 729 mmHg 86%
01:00 +19°C° 0 mm 1 mps 728 mmHg 86%
02:00 +19°C° 0 mm 1 mps 728 mmHg 86%
03:00 +19°C° 0 mm 1 mps 728 mmHg 86%
04:00 +19°C° 0 mm 1 mps 728 mmHg 85%
05:00 +19°C° 0 mm 1 mps 728 mmHg 85%
06:00 +20°C° 0 mm 1 mps 728 mmHg 79%
07:00 +22°C° 0 mm 1 mps 729 mmHg 72%
08:00 +24°C° 0 mm 1 mps 729 mmHg 66%
09:00 +25°C° 0 mm 1 mps 729 mmHg 60%
10:00 +27°C° 0 mm 2 mps 729 mmHg 55%
11:00 +28°C° 0 mm 2 mps 729 mmHg 49%
12:00 +28°C° 0.1 mm 2 mps 729 mmHg 50%
13:00 +28°C° 0.1 mm 2 mps 728 mmHg 51%
14:00 +28°C° 0.1 mm 2 mps 728 mmHg 52%
15:00 +28°C° 0.4 mm 2 mps 728 mmHg 54%
16:00 +27°C° 0.4 mm 1 mps 728 mmHg 56%
17:00 +27°C° 0.4 mm 1 mps 728 mmHg 59%
18:00 +25°C° 0.4 mm 1 mps 728 mmHg 65%
19:00 +24°C° 0.4 mm 1 mps 728 mmHg 72%
20:00 +22°C° 0.4 mm 1 mps 728 mmHg 79%
21:00 +21°C° 0.1 mm 1 mps 728 mmHg 81%
22:00 +21°C° 0.1 mm 1 mps 728 mmHg 83%
23:00 +20°C° 0.1 mm 1 mps 728 mmHg 85%

11 August, Tuesday

Time Temperature Precipitation Wind Pressure Humidity
00:00 +20°C° 0 mm 1 mps 728 mmHg 85%
01:00 +19°C° 0 mm 1 mps 728 mmHg 85%
02:00 +19°C° 0 mm 1 mps 728 mmHg 85%
03:00 +19°C° 0 mm 1 mps 728 mmHg 85%
04:00 +19°C° 0 mm 1 mps 728 mmHg 86%
05:00 +18°C° 0 mm 1 mps 728 mmHg 86%
06:00 +20°C° 0 mm 1 mps 728 mmHg 82%
07:00 +22°C° 0 mm 1 mps 728 mmHg 77%
08:00 +24°C° 0 mm 1 mps 728 mmHg 73%
09:00 +25°C° 0.9 mm 1 mps 728 mmHg 70%
10:00 +25°C° 0.9 mm 1 mps 729 mmHg 68%
11:00 +26°C° 0.9 mm 1 mps 729 mmHg 66%
12:00 +27°C° 1.4 mm 1 mps 728 mmHg 65%
13:00 +27°C° 1.4 mm 1 mps 728 mmHg 64%
14:00 +27°C° 1.4 mm 1 mps 728 mmHg 62%
15:00 +27°C° 0.5 mm 1 mps 728 mmHg 64%
16:00 +27°C° 0.5 mm 1 mps 728 mmHg 66%
17:00 +26°C° 0.5 mm 1 mps 728 mmHg 69%
18:00 +25°C° 0.1 mm 1 mps 728 mmHg 71%
19:00 +23°C° 0.1 mm 1 mps 728 mmHg 73%
20:00 +22°C° 0.1 mm 1 mps 727 mmHg 75%
21:00 +21°C° 0.3 mm 1 mps 728 mmHg 78%
22:00 +21°C° 0.3 mm 1 mps 728 mmHg 81%
23:00 +20°C° 0.3 mm 1 mps 728 mmHg 83%

12 August, Wednesday

Time Temperature Precipitation Wind Pressure Humidity
00:00 +20°C° 0.3 mm 1 mps 728 mmHg 85%
01:00 +19°C° 0.3 mm 1 mps 728 mmHg 87%
02:00 +19°C° 0.3 mm 1 mps 728 mmHg 89%
03:00 +19°C° 0.6 mm 1 mps 728 mmHg 90%
04:00 +18°C° 0.6 mm 1 mps 728 mmHg 91%
05:00 +18°C° 0.6 mm 1 mps 728 mmHg 92%
06:00 +19°C° 0.5 mm 2 mps 728 mmHg 89%
07:00 +20°C° 0.5 mm 2 mps 728 mmHg 86%
08:00 +21°C° 0.5 mm 2 mps 728 mmHg 83%
09:00 +23°C° 1.2 mm 2 mps 729 mmHg 80%
10:00 +24°C° 1.2 mm 3 mps 729 mmHg 77%
11:00 +25°C° 1.2 mm 3 mps 729 mmHg 73%
12:00 +26°C° 0.9 mm 3 mps 729 mmHg 70%
13:00 +26°C° 0.9 mm 3 mps 729 mmHg 66%
14:00 +27°C° 0.9 mm 3 mps 728 mmHg 63%
15:00 +26°C° 0.3 mm 3 mps 728 mmHg 63%
16:00 +26°C° 0.3 mm 3 mps 729 mmHg 64%
17:00 +26°C° 0.3 mm 3 mps 729 mmHg 64%
18:00 +24°C° 0.1 mm 3 mps 729 mmHg 71%
19:00 +21°C° 0.1 mm 2 mps 729 mmHg 79%
20:00 +19°C° 0.1 mm 2 mps 729 mmHg 86%
21:00 +19°C° 0 mm 2 mps 729 mmHg 87%
22:00 +18°C° 0 mm 2 mps 730 mmHg 88%
23:00 +18°C° 0 mm 2 mps 730 mmHg 89%

13 August, Thursday

Time Temperature Precipitation Wind Pressure Humidity
00:00 +17°C° 0 mm 2 mps 730 mmHg 87%
01:00 +17°C° 0 mm 2 mps 730 mmHg 86%
02:00 +17°C° 0 mm 2 mps 731 mmHg 84%
03:00 +16°C° 0 mm 2 mps 730 mmHg 86%
04:00 +15°C° 0 mm 1 mps 730 mmHg 88%
05:00 +14°C° 0 mm 1 mps 730 mmHg 90%
06:00 +16°C° 0 mm 1 mps 730 mmHg 83%
07:00 +18°C° 0 mm 1 mps 731 mmHg 77%
08:00 +20°C° 0 mm 1 mps 731 mmHg 70%
09:00 +21°C° 0 mm 1 mps 731 mmHg 65%
10:00 +23°C° 0 mm 1 mps 731 mmHg 60%
11:00 +25°C° 0 mm 2 mps 731 mmHg 55%
12:00 +25°C° 0 mm 2 mps 731 mmHg 54%
13:00 +26°C° 0 mm 1 mps 730 mmHg 53%
14:00 +27°C° 0 mm 1 mps 730 mmHg 52%
15:00 +27°C° 0 mm 1 mps 730 mmHg 53%
16:00 +26°C° 0 mm 1 mps 730 mmHg 54%
17:00 +26°C° 0 mm 1 mps 730 mmHg 55%
18:00 +24°C° 0 mm 1 mps 730 mmHg 61%
19:00 +23°C° 0 mm 1 mps 730 mmHg 67%
20:00 +21°C° 0 mm 1 mps 730 mmHg 73%
21:00 +18°C° 0 mm 0 mps 730 mmHg 74%
22:00 +17°C° 0 mm 0 mps 730 mmHg 75%
23:00 +16°C° 0 mm 0 mps 730 mmHg 76%
Show more